User: anonymous   Login
Location: Caltech
(34.1382°N, 118.1253°W)
Time: 08:27:54
(UTC-08:00)
Language:

ADEOS II - Orbit

View from above orbital plane
View from above orbital plane
View from above satellite
View from above satellite

Ground track
Ground track

The orbit data is extracted from the following two-line orbital elements,

1 27597U 02056A   15025.53110748  .00000248  00000-0  11851-3 0  5062
2 27597 098.2804 026.5179 0001684 067.2867 089.9085 14.26988298630801
Epoch (UTC): 25 January 2015 12:44:47
Eccentricity: 0.0001684
inclination: 98.2804°
perigee height: 800 km
apogee height: 803 km
right ascension of ascending node: 26.5179°
argument of perigee: 67.2867°
revolutions per day: 14.26988298
mean anomaly at epoch: 89.9085°
orbit number at epoch: 63080

The dashed part of the orbit path shows where the satellite is in the earth's shadow,  

DLR